Total_Precipitation_Accumulation
0.64 0.54 0.61 0.60 0.48 0.56 0.81 0.69 0.57 0.38 0.36 0.40 0.38 0.40 0.40 0.36 0.31 0.27 0.26 0.25 0.23 0.22 0.23 0.24 0.26 0.32 0.41 0.50 0.57 0.67 0.74 0.76 0.75 0.74 0.73 0.72 0.70 0.68 0.66 0.68 0.69 0.68 0.66 0.65
0.67 0.39 0.42 0.45 0.35 0.41 0.49 0.42 0.38 0.30 0.35 0.29 0.28 0.33 0.35 0.28 0.22 0.19 0.19 0.19 0.17 0.16 0.16 0.19 0.21 0.24 0.30 0.41 0.49 0.55 0.64 0.69 0.70 0.71 0.70 0.68 0.65 0.63 0.59 0.60 0.63 0.66 0.67 0.69
0.75 0.38 0.43 0.47 0.35 0.36 0.42 0.35 0.32 0.36 0.31 0.21 0.23 0.30 0.35 0.28 0.19 0.15 0.15 0.15 0.14 0.15 0.15 0.14 0.15 0.22 0.29 0.37 0.41 0.44 0.49 0.54 0.57 0.60 0.64 0.65 0.65 0.66 0.70 0.72 0.73 0.77 0.81 0.83
0.78 0.59 0.69 0.46 0.27 0.26 0.32 0.30 0.26 0.26 0.20 0.18 0.22 0.23 0.25 0.26 0.22 0.17 0.11 0.09 0.09 0.12 0.12 0.12 0.14 0.19 0.28 0.38 0.45 0.49 0.54 0.55 0.55 0.57 0.64 0.70 0.77 0.83 0.90 0.96 0.97 1.00 1.03 1.04
0.73 0.56 0.37 0.22 0.17 0.22 0.29 0.29 0.21 0.19 0.16 0.14 0.15 0.19 0.23 0.22 0.22 0.19 0.12 0.09 0.08 0.09 0.11 0.14 0.17 0.18 0.24 0.36 0.46 0.52 0.58 0.61 0.63 0.68 0.77 0.85 0.95 1.03 1.06 1.12 1.11 1.07 1.03 1.00
0.73 0.57 0.30 0.19 0.09 0.09 0.20 0.31 0.16 0.13 0.13 0.12 0.12 0.20 0.23 0.23 0.26 0.25 0.20 0.14 0.10 0.10 0.12 0.17 0.21 0.25 0.32 0.43 0.54 0.61 0.66 0.72 0.76 0.78 0.84 0.88 0.90 0.92 0.91 0.91 0.89 0.84 0.79 0.75
0.59 0.51 0.24 0.13 0.05 0.06 0.24 0.31 0.15 0.14 0.15 0.14 0.16 0.19 0.17 0.19 0.23 0.25 0.26 0.25 0.23 0.22 0.24 0.27 0.33 0.41 0.50 0.58 0.70 0.75 0.75 0.80 0.81 0.79 0.80 0.78 0.70 0.64 0.61 0.58 0.54 0.51 0.49 0.47
0.39 0.54 0.34 0.15 0.11 0.20 0.26 0.16 0.13 0.13 0.15 0.15 0.14 0.12 0.12 0.14 0.18 0.20 0.22 0.26 0.30 0.34 0.35 0.35 0.42 0.52 0.60 0.67 0.71 0.69 0.63 0.60 0.58 0.51 0.48 0.46 0.42 0.40 0.38 0.38 0.38 0.36 0.34 0.33
0.37 0.42 0.32 0.23 0.21 0.20 0.17 0.16 0.14 0.15 0.14 0.14 0.14 0.15 0.13 0.12 0.13 0.14 0.14 0.15 0.19 0.25 0.29 0.28 0.28 0.32 0.36 0.36 0.35 0.34 0.32 0.31 0.32 0.31 0.31 0.30 0.29 0.28 0.28 0.29 0.29 0.29 0.28 0.28
0.33 0.32 0.24 0.21 0.18 0.16 0.15 0.16 0.15 0.14 0.12 0.12 0.13 0.13 0.12 0.12 0.12 0.12 0.13 0.12 0.13 0.14 0.16 0.16 0.14 0.14 0.14 0.14 0.15 0.17 0.20 0.22 0.24 0.25 0.25 0.26 0.26 0.24 0.24 0.25 0.26 0.26 0.27 0.27
0.31 0.24 0.19 0.18 0.16 0.17 0.15 0.13 0.13 0.12 0.10 0.11 0.11 0.11 0.12 0.12 0.12 0.12 0.12 0.12 0.13 0.15 0.16 0.18 0.17 0.17 0.16 0.17 0.18 0.20 0.22 0.23 0.25 0.26 0.26 0.26 0.27 0.27 0.28 0.29 0.31 0.32 0.31 0.30
0.35 0.25 0.24 0.22 0.16 0.14 0.13 0.13 0.14 0.15 0.14 0.12 0.13 0.14 0.14 0.15 0.15 0.14 0.14 0.14 0.15 0.17 0.18 0.20 0.19 0.18 0.18 0.19 0.21 0.23 0.23 0.23 0.24 0.25 0.25 0.25 0.26 0.27 0.31 0.32 0.34 0.35 0.33 0.33
0.26 0.18 0.16 0.15 0.13 0.12 0.13 0.15 0.16 0.16 0.16 0.16 0.16 0.16 0.16 0.17 0.17 0.17 0.17 0.16 0.17 0.18 0.18 0.20 0.20 0.20 0.21 0.21 0.21 0.23 0.24 0.26 0.26 0.26 0.26 0.27 0.27 0.27 0.29 0.33 0.36 0.36 0.34 0.33
0.14 0.13 0.15 0.14 0.15 0.14 0.15 0.16 0.16 0.16 0.16 0.17 0.17 0.17 0.17 0.17 0.16 0.16 0.19 0.21 0.20 0.20 0.19 0.19 0.18 0.19 0.21 0.20 0.20 0.21 0.24 0.27 0.27 0.26 0.27 0.29 0.29 0.28 0.28 0.30 0.31 0.30 0.31 0.36
0.14 0.16 0.19 0.17 0.15 0.14 0.13 0.12 0.12 0.12 0.12 0.13 0.14 0.16 0.16 0.16 0.17 0.18 0.19 0.19 0.17 0.17 0.17 0.16 0.16 0.17 0.18 0.18 0.18 0.19 0.22 0.25 0.26 0.26 0.27 0.29 0.31 0.32 0.31 0.30 0.30 0.29 0.30 0.34
0.16 0.15 0.15 0.16 0.16 0.14 0.13 0.13 0.14 0.15 0.15 0.15 0.16 0.17 0.18 0.18 0.18 0.18 0.18 0.16 0.15 0.16 0.17 0.16 0.16 0.16 0.16 0.16 0.17 0.19 0.22 0.29 0.32 0.31 0.31 0.31 0.32 0.33 0.32 0.31 0.31 0.30 0.29 0.32
0.25 0.22 0.19 0.20 0.19 0.19 0.19 0.20 0.21 0.21 0.19 0.19 0.19 0.18 0.18 0.17 0.17 0.18 0.17 0.15 0.14 0.14 0.15 0.16 0.17 0.16 0.15 0.16 0.17 0.20 0.22 0.27 0.33 0.31 0.28 0.29 0.31 0.33 0.35 0.36 0.34 0.32 0.29 0.33
0.29 0.30 0.27 0.26 0.26 0.25 0.24 0.23 0.22 0.21 0.21 0.21 0.20 0.19 0.19 0.19 0.19 0.19 0.19 0.16 0.15 0.16 0.17 0.17 0.16 0.15 0.15 0.16 0.18 0.20 0.22 0.24 0.26 0.27 0.28 0.31 0.35 0.37 0.38 0.38 0.36 0.34 0.31 0.35
0.27 0.28 0.28 0.28 0.28 0.27 0.28 0.28 0.27 0.25 0.24 0.23 0.21 0.22 0.23 0.22 0.23 0.23 0.21 0.19 0.18 0.19 0.19 0.18 0.19 0.17 0.17 0.19 0.22 0.22 0.24 0.26 0.27 0.28 0.30 0.35 0.39 0.36 0.36 0.38 0.37 0.36 0.36 0.37
0.28 0.29 0.29 0.30 0.28 0.27 0.29 0.29 0.27 0.25 0.25 0.23 0.23 0.24 0.24 0.24 0.23 0.22 0.20 0.19 0.20 0.19 0.17 0.17 0.17 0.17 0.18 0.20 0.24 0.24 0.24 0.27 0.29 0.30 0.33 0.36 0.37 0.36 0.35 0.37 0.37 0.37 0.37 0.38
0.32 0.31 0.30 0.31 0.31 0.29 0.29 0.27 0.26 0.27 0.26 0.24 0.24 0.25 0.25 0.24 0.21 0.19 0.18 0.19 0.18 0.16 0.15 0.16 0.15 0.15 0.17 0.23 0.27 0.25 0.26 0.28 0.32 0.35 0.38 0.39 0.39 0.38 0.37 0.37 0.37 0.38 0.38 0.38
0.30 0.30 0.31 0.30 0.28 0.28 0.28 0.27 0.26 0.27 0.27 0.27 0.27 0.25 0.24 0.23 0.20 0.19 0.18 0.18 0.17 0.18 0.18 0.16 0.16 0.18 0.23 0.28 0.28 0.28 0.30 0.33 0.35 0.37 0.39 0.39 0.40 0.39 0.37 0.37 0.38 0.37 0.37 0.37
0.26 0.28 0.29 0.30 0.29 0.28 0.27 0.27 0.27 0.26 0.27 0.28 0.29 0.28 0.26 0.24 0.22 0.21 0.22 0.19 0.18 0.19 0.18 0.17 0.20 0.25 0.28 0.29 0.28 0.30 0.32 0.34 0.35 0.36 0.36 0.37 0.37 0.37 0.37 0.36 0.35 0.35 0.36 0.36
0.19 0.19 0.21 0.21 0.20 0.19 0.21 0.22 0.22 0.23 0.24 0.25 0.25 0.25 0.24 0.23 0.22 0.20 0.21 0.20 0.20 0.20 0.19 0.19 0.23 0.27 0.29 0.28 0.27 0.30 0.31 0.31 0.32 0.32 0.33 0.32 0.32 0.33 0.33 0.34 0.34 0.32 0.33 0.33
0.12 0.12 0.12 0.12 0.13 0.15 0.17 0.17 0.18 0.18 0.19 0.21 0.21 0.20 0.19 0.19 0.21 0.21 0.20 0.19 0.19 0.20 0.20 0.20 0.22 0.24 0.25 0.24 0.25 0.27 0.27 0.28 0.31 0.33 0.31 0.30 0.30 0.30 0.30 0.29 0.31 0.31 0.31 0.31
0.09 0.09 0.08 0.09 0.10 0.12 0.13 0.13 0.15 0.16 0.17 0.17 0.19 0.19 0.19 0.19 0.20 0.20 0.20 0.20 0.19 0.20 0.21 0.21 0.21 0.22 0.22 0.22 0.23 0.23 0.23 0.24 0.25 0.26 0.26 0.27 0.28 0.28 0.27 0.27 0.27 0.29 0.29 0.29
0.07 0.07 0.08 0.08 0.09 0.10 0.11 0.11 0.13 0.14 0.16 0.17 0.19 0.19 0.20 0.20 0.20 0.20 0.20 0.19 0.19 0.20 0.20 0.20 0.21 0.21 0.21 0.21 0.21 0.20 0.20 0.21 0.23 0.24 0.24 0.25 0.26 0.27 0.27 0.27 0.28 0.28 0.28 0.28